Wichita Dwight D. Eisenhower National Airport Airport (ICT)

 

Airport Diagram
Current Weather/Forecast (VFR Conditions)
METAR KICT 281753Z 13013G19KT 10SM SCT220 31/16 A2986 RMK AO2 SLP095 T03110161 10311 20178 58012
TAF KICT 281720Z 2818/2918 16010KT P6SM SCT050 SCT150 FM282300 14010KT P6SM SCT150 FM290600 15010KT P6SM VCSH SCT050 BKN100

All Charts
General
Chart Name Download
AIRPORT DIAGRAM
TAKEOFF MINIMUMS
ALTERNATE MINIMUMS
HOT SPOT

Approaches
Chart Name Download
ILS OR LOC RWY 01L
ILS OR LOC RWY 01R
ILS OR LOC RWY 19L
ILS OR LOC RWY 19R
ILS RWY 01L (SA CAT I)
ILS RWY 01L (CAT II)
RNAV (RNP) Z RWY 01L
RNAV (RNP) Z RWY 14
RNAV (RNP) Z RWY 19L
RNAV (RNP) Z RWY 19R
RNAV (GPS) RWY 01R
RNAV (GPS) RWY 32
RNAV (GPS) Y RWY 01L
RNAV (GPS) Y RWY 14
RNAV (GPS) Y RWY 19L
RNAV (GPS) Y RWY 19R
VOR RWY 14
NDB RWY 01R